Date String (YYYY-MM-DD hh:mm:ss) UTC,Instrument flags,absolute air pressure of the measurement (hPa),sample flow rate (lpm),inlet stack bypass flow (lpm),air temperature of the measurement (°C),ambient temperature measured by the external sensor (°C),aerosol sample conditioner tube jacket temperature (°C),OPC LED temperature (°C),internal box temperature (°C),relative humidity of the measurement (%),span deviation,mass concentration of particles derived from Lorenz-Mie calculation of OPC scattering (μg/m³),mass concentration of particles derived from Lorenz-Mie calculation of OPC scattering (μg/m³),mass concentration of particles derived from Lorenz-Mie calculation of OPC scattering (μg/m³)
DateTimeUTC,F1_M11,P_M11,Q1_M11,Q2_M11,T1_M11,T2_M11,T3_M11,T4_M11,T5_M11,U1_M11,ZSPAN_M11,X2_M11,X0_M11,X1_M11
2024-01-19 03:00:00,SystemResetWarning,0836.1,4.99,000.00,018.9,017.8,000.0,027.3,020.0,8.4,0000.0,0003.20,0009.51,0001.99
2024-01-19 03:01:00,SystemResetWarning,0836.0,4.99,000.00,018.9,017.8,000.0,027.3,020.0,8.4,0000.0,0003.17,0009.26,0001.99
2024-01-19 03:02:00,SystemResetWarning,0835.9,5.00,000.00,018.8,017.7,000.0,027.3,020.0,8.4,0000.0,0003.21,0010.40,0002.01
2024-01-19 03:03:00,SystemResetWarning,0835.9,5.01,000.00,018.8,017.6,000.0,027.3,020.0,8.5,0000.0,0003.23,0010.65,0002.03
2024-01-19 03:04:00,SystemResetWarning,0836.0,5.01,000.00,018.8,017.6,000.0,027.3,020.0,8.5,0000.0,0003.21,0011.03,0002.05
2024-01-19 03:05:00,SystemResetWarning,0835.8,5.01,000.00,018.8,017.5,000.0,027.3,020.0,8.5,0000.0,0003.16,0011.01,0002.04
2024-01-19 03:06:00,SystemResetWarning,0835.8,5.00,000.00,018.8,017.6,000.0,027.3,020.1,8.6,0000.0,0003.15,0010.96,0002.02
2024-01-19 03:07:00,SystemResetWarning,0835.8,5.00,000.00,018.9,018.2,000.0,027.3,020.5,8.6,0000.0,0003.17,0011.28,0002.01
2024-01-19 03:08:00,SystemResetWarning,0836.0,5.00,000.00,019.0,018.9,000.0,027.3,020.7,8.5,0000.0,0003.16,0011.72,0001.99
2024-01-19 03:09:00,SystemResetWarning,0836.1,4.97,000.00,019.0,018.8,000.0,027.2,020.3,8.5,0000.0,0003.18,0013.19,0001.99
2024-01-19 03:10:00,SystemResetWarning,0836.1,5.01,000.00,019.0,018.6,000.0,027.2,020.0,8.5,0000.0,0003.18,0013.27,0001.97
2024-01-19 03:11:00,SystemResetWarning,0836.0,5.01,000.00,018.9,018.4,000.0,027.3,020.0,8.5,0000.0,0003.18,0012.75,0001.96
2024-01-19 03:12:00,SystemResetWarning,0835.8,5.00,000.00,018.9,018.2,000.0,027.3,020.0,8.5,0000.0,0003.21,0013.53,0001.95
2024-01-19 03:13:00,SystemResetWarning,0835.8,4.99,000.00,018.9,018.0,000.0,027.3,020.0,8.5,0000.0,0003.20,0013.14,0001.92
2024-01-19 03:14:00,SystemResetWarning,0836.1,5.00,000.00,018.9,017.9,000.0,027.3,020.0,8.6,0000.0,0003.16,0014.01,0001.89
2024-01-19 03:15:00,SystemResetWarning,0836.1,4.99,000.00,018.9,017.8,000.0,027.3,020.0,8.6,0000.0,0003.11,0013.53,0001.85
2024-01-19 03:16:00,SystemResetWarning,0836.0,5.02,000.00,018.8,017.7,000.0,027.3,020.0,8.6,0000.0,0003.08,0013.37,0001.82
2024-01-19 03:17:00,SystemResetWarning,0836.0,5.00,000.00,018.8,017.6,000.0,027.3,020.0,8.6,0000.0,0003.08,0013.50,0001.81
2024-01-19 03:18:00,SystemResetWarning,0836.0,5.00,000.00,018.8,017.5,000.0,027.3,020.0,8.6,0000.0,0002.99,0013.87,0001.81
2024-01-19 03:19:00,SystemResetWarning,0835.9,4.99,000.00,018.8,017.6,000.0,027.3,020.2,8.6,0000.0,0003.02,0013.45,0001.80
2024-01-19 03:20:00,SystemResetWarning,0836.2,5.01,000.00,018.9,018.3,000.0,027.3,020.6,8.6,0000.0,0003.00,0012.26,0001.78
2024-01-19 03:21:00,SystemResetWarning,0836.4,4.99,000.00,019.0,018.9,000.0,027.2,020.7,8.5,0000.0,0003.03,0011.73,0001.78
2024-01-19 03:22:00,SystemResetWarning,0836.2,4.99,000.00,019.0,018.7,000.0,027.2,020.2,8.5,0000.0,0003.04,0012.31,0001.78
2024-01-19 03:23:00,SystemResetWarning,0835.9,5.01,000.00,018.9,018.5,000.0,027.3,020.0,8.6,0000.0,0003.10,0012.40,0001.79
2024-01-19 03:24:00,SystemResetWarning,0835.9,5.00,000.00,018.9,018.3,000.0,027.3,020.0,8.6,0000.0,0003.11,0012.14,0001.81
2024-01-19 03:25:00,SystemResetWarning,0836.1,5.00,000.00,018.9,018.1,000.0,027.3,020.0,8.5,0000.0,0003.15,0011.98,0001.82
2024-01-19 03:26:00,SystemResetWarning,0836.1,5.00,000.00,018.9,017.9,000.0,027.3,020.0,8.6,0000.0,0003.23,0012.20,0001.83
2024-01-19 03:27:00,SystemResetWarning,0836.0,5.01,000.00,018.9,017.8,000.0,027.3,020.0,8.6,0000.0,0003.28,0012.34,0001.85
2024-01-19 03:28:00,SystemResetWarning,0836.1,5.00,000.00,018.9,017.7,000.0,027.3,020.0,8.6,0000.0,0003.30,0012.66,0001.86
2024-01-19 03:29:00,SystemResetWarning,0836.3,5.00,000.00,018.8,017.6,000.0,027.3,020.0,8.7,0000.0,0003.34,0012.76,0001.87
2024-01-19 03:30:00,SystemResetWarning,0836.4,5.00,000.00,018.8,017.6,000.0,027.3,020.0,8.7,0000.0,0003.36,0013.81,0001.88
2024-01-19 03:31:00,SystemResetWarning,0836.2,5.00,000.00,018.8,017.5,000.0,027.3,020.0,8.7,0000.0,0003.34,0013.25,0001.90
2024-01-19 03:32:00,SystemResetWarning,0836.1,5.01,000.00,018.9,017.8,000.0,027.3,020.3,8.7,0000.0,0003.36,0013.32,0001.90
2024-01-19 03:33:00,SystemResetWarning,0836.1,5.00,000.00,019.0,018.5,000.0,027.3,020.7,8.6,0000.0,0003.38,0014.07,0001.90
2024-01-19 03:34:00,SystemResetWarning,0836.2,4.99,000.00,019.1,018.9,000.0,027.2,020.6,8.5,0000.0,0003.36,0013.92,0001.92
2024-01-19 03:35:00,SystemResetWarning,0836.1,5.00,000.00,019.0,018.7,000.0,027.2,020.1,8.6,0000.0,0003.38,0014.01,0001.91
2024-01-19 03:36:00,SystemResetWarning,0836.1,4.99,000.00,018.9,018.5,000.0,027.3,020.0,8.6,0000.0,0003.39,0013.96,0001.91
2024-01-19 03:37:00,SystemResetWarning,0836.1,5.00,000.00,018.9,018.2,000.0,027.3,020.0,8.6,0000.0,0003.40,0013.79,0001.91
2024-01-19 03:38:00,SystemResetWarning,0836.2,5.01,000.00,018.9,018.1,000.0,027.3,020.0,8.6,0000.0,0003.44,0014.48,0001.91
2024-01-19 03:39:00,SystemResetWarning,0836.2,5.00,000.00,018.9,017.9,000.0,027.3,020.0,8.6,0000.0,0003.42,0014.64,0001.90
2024-01-19 03:40:00,SystemResetWarning,0836.2,5.00,000.00,018.9,017.8,000.0,027.3,020.0,8.6,0000.0,0003.42,0014.71,0001.89
2024-01-19 03:41:00,SystemResetWarning,0836.3,5.01,000.00,018.8,017.7,000.0,027.3,020.0,8.6,0000.0,0003.41,0013.99,0001.88
2024-01-19 03:42:00,SystemResetWarning,0836.2,5.00,000.00,018.8,017.6,000.0,027.3,020.0,8.6,0000.0,0003.43,0013.47,0001.87
2024-01-19 03:43:00,SystemResetWarning,0836.1,5.00,000.00,018.8,017.6,000.0,027.3,020.2,8.6,0000.0,0003.43,0013.98,0001.86
2024-01-19 03:44:00,SystemResetWarning,0836.2,5.00,000.00,019.0,018.3,000.0,027.2,020.6,8.5,0000.0,0003.36,0013.62,0001.84
2024-01-19 03:45:00,SystemResetWarning,0836.4,4.99,000.00,019.1,018.9,000.0,027.2,020.7,8.4,0000.0,0003.33,0012.65,0001.80
2024-01-19 03:46:00,SystemResetWarning,0836.3,4.99,000.00,019.0,018.7,000.0,027.2,020.1,8.4,0000.0,0003.32,0012.70,0001.79
2024-01-19 03:47:00,SystemResetWarning,0836.2,5.00,000.00,018.9,018.5,000.0,027.3,020.0,8.4,0000.0,0003.28,0012.78,0001.76
2024-01-19 03:48:00,SystemResetWarning,0836.3,5.02,000.00,018.9,018.2,000.0,027.3,020.0,8.4,0000.0,0003.27,0012.36,0001.74
2024-01-19 03:49:00,SystemResetWarning,0836.2,5.00,000.00,018.9,018.0,000.0,027.3,020.0,8.4,0000.0,0003.22,0011.45,0001.74
2024-01-19 03:50:00,SystemResetWarning,0836.2,4.99,000.00,018.9,017.9,000.0,027.3,020.0,8.4,0000.0,0003.18,0010.78,0001.73
2024-01-19 03:51:00,SystemResetWarning,0836.4,4.99,000.00,018.9,017.7,000.0,027.3,020.0,8.4,0000.0,0003.17,0011.28,0001.73
2024-01-19 03:52:00,SystemResetWarning,0836.7,5.01,000.00,018.8,017.6,000.0,027.3,020.0,8.4,0000.0,0003.12,0010.88,0001.72
2024-01-19 03:53:00,SystemResetWarning,0836.5,5.02,000.00,018.8,017.5,000.0,027.3,020.0,8.5,0000.0,0003.01,0010.83,0001.71
2024-01-19 03:54:00,SystemResetWarning,0836.4,5.01,000.00,018.9,017.9,000.0,027.3,020.3,8.4,0000.0,0002.93,0011.36,0001.69
2024-01-19 03:55:00,SystemResetWarning,0836.3,5.00,000.00,019.0,018.6,000.0,027.2,020.7,8.4,0000.0,0003.00,0011.80,0001.70
2024-01-19 03:56:00,SystemResetWarning,0836.4,4.99,000.00,019.1,018.9,000.0,027.2,020.4,8.3,0000.0,0003.13,0012.70,0001.72
2024-01-19 03:57:00,SystemResetWarning,0836.5,4.98,000.00,019.0,018.6,000.0,027.2,020.0,8.4,0000.0,0003.13,0013.50,0001.72
2024-01-19 03:58:00,SystemResetWarning,0836.4,5.00,000.00,018.9,018.3,000.0,027.3,020.0,8.4,0000.0,0003.15,0013.27,0001.72
2024-01-19 03:59:00,SystemResetWarning,0836.3,5.00,000.00,018.9,018.1,000.0,027.3,020.0,8.4,0000.0,0003.12,0012.90,0001.74
